Location: Cornospital
(48.0620°N, 3.3837°W)
Time: 20:56:50
(UTC+00:00)

Cosmos 1867 - Pass Details

Date: 17 June 2021
Orbit: 773 x 803 km, 65.0° (Epoch: 03 August)

Event Time Altitude Azimuth Distance (km) Brightness Sun altitude
Rises 22:50:45 0° 321° (NW) 3,322 8.2 -16.1°
Reaches altitude 10° 22:53:11 10° 321° (NW) 2,388 7.2 -16.2°
Maximum altitude 22:58:42 85° 234° (SW) 811 3.5 -16.5°
Enters shadow 23:01:49 27° 147° (SSE) 1,509 4.5 -16.7°
